Regional Weather Roundup
Issued by NWS Upton, NY

Current Version | Previous Version | Text Only | Print | Product List | Glossary Off
Versions: 1 2 3 4 5 6 7 8 9 10 11 12 13 14 15 16 17 18 19 20 21 22 23 24 25 26 27
000 ASUS41 KOKX 251709 RWROKX REGIONAL WEATHER ROUNDUP NATIONAL WEATHER SERVICE NEW YORK NY 100 PM EDT THU MAY 25 2017 NOTE: "FAIR" INDICATES FEW OR NO CLOUDS BELOW 12,000 FEET WITH NO SIGNIFICANT WEATHER AND/OR OBSTRUCTIONS TO VISIBILITY. NYZ071-072-176-178-NJZ106-104-251800- NEW YORK CITY METRO AREA CITY SKY/WX TMP DP RH WIND PRES REMARKS Central Park LGT RAIN 57 57 100 E9 29.62F FOG Wall St Helipt CLOUDY 59 57 94 NE20 29.59F Bronx Bot Gard N/A 55 54 94 E9 29.62F LaGuardia APRT LGT RAIN 57 56 96 NE15 29.60F FOG Kennedy INTL LGT RAIN 59 59 100 E17G26 29.60F FOG Breezy Point N/A 55 N/A N/A E21G30 N/A Newark/Liberty LGT RAIN 58 57 97 E10 29.59F FOG Teterboro LGT RAIN 57 56 96 E6G21 29.59F FOG $$ NYZ177-179-078>081-251800- LONG ISLAND NEW YORK CITY SKY/WX TMP DP RH WIND PRES REMARKS Jones Beach N/A 55 N/A N/A E22G29 N/A Matinecock PT NOT AVBL Farmingdale LGT RAIN 58 57 97 E13 29.61F FOG MacArthur/ISP LGT RAIN 58 57 97 E13G22 29.62F FOG Shirley LGT RAIN 57 32 38 E8 29.64F Mt Sinai Harb N/A 55 N/A N/A E12G17 N/A Westhampton LGT RAIN 56 54 93 E13G18 29.66F FOG East Hampton CLOUDY 54 53 95 E9G20 29.66F FOG Montauk N/A 54 54 100 NE12G21 29.69F $$ NYZ052-065-067-251800- HUDSON VALLEY CITY SKY/WX TMP DP RH WIND PRES REMARKS White Plains LGT RAIN 55 54 96 E15G31 29.62F VSB 1 Larchmont Harb N/A 55 N/A N/A NE29 N/A Croton O-T Hud N/A 57 N/A N/A E6G13 N/A Newburgh LGT RAIN 57 57 100 E14 29.64F FOG Montgomery LGT RAIN 58 56 93 NE8 29.62S Poughkeepsie LGT RAIN 58 55 90 NE7 29.62F FOG Albany LGT RAIN 58 51 78 E6 29.70F $$ NJZ001-105-106-008-010-013-015-019>022-104-251800- NEW JERSEY CITY SKY/WX TMP DP RH WIND PRES REMARKS Newark/Liberty LGT RAIN 58 57 97 E10 29.59F FOG Teterboro LGT RAIN 57 56 96 E6G21 29.59F FOG Caldwell LGT RAIN 59 56 89 E8 29.61S FOG Somerville CLOUDY 59 57 93 VRB6 29.57S FOG Linden DRIZZLE 58 56 93 SE7 29.60S Perth Amboy N/A 55 N/A N/A E16G22 N/A Sussex LGT RAIN 59 57 93 VRB7 29.61S Andover N/A 59 55 87 VRB3 29.59F Trenton CLOUDY 58 58 100 E10 29.56S FOG Millville CLOUDY 70 69 97 SE5 29.50F Atlantic City CLOUDY 66 64 93 S7 29.52F FOG Wrightstown NOT AVBL Toms River LGT RAIN 60 59 96 E6 29.56F FOG Belmar LGT RAIN 56 55 97 E14 29.58F FOG $$ PAZ047>061-062-071-251800- EASTERN PENNSYLVANIA CITY SKY/WX TMP DP RH WIND PRES REMARKS Philadelphia CLOUDY 61 59 93 NE7 29.54F FOG Allentown LGT RAIN 60 56 86 E10 29.56R Scranton LGT RAIN 61 56 83 E12G25 29.52F $$ CTZ002-004>006-009-010-012-RIZ004-006-007-MAZ004-011-015-251800- SOUTHERN NEW ENGLAND IN CT CITY SKY/WX TMP DP RH WIND PRES REMARKS Bradley INTL LGT RAIN 57 54 89 NE13 29.72F Hartford LGT RAIN 59 55 87 NE8 29.70F Danbury LGT RAIN 57 56 96 E14G25 29.65F FOG Wtrbury/Oxford CLOUDY 57 52 82 E12G17 29.68F FOG Bridgeport LGT RAIN 57 54 89 E26G33 29.65F FOG Meriden LGT RAIN 58 56 93 NE6 29.68F FOG New Haven LGT RAIN 57 55 93 E10G21 29.66F FOG Chester LGT RAIN 57 57 100 E8G17 29.68F Groton LGT RAIN 58 55 90 E15 29.68F FOG Wilimantic LGT RAIN 59 56 89 NE15G21 29.72F FOG IN RI CITY SKY/WX TMP DP RH WIND PRES REMARKS Providence RAIN 56 56 100 NE12 29.75S FOG Block Island LGT RAIN 54 53 97 E14G22 29.70F Westerly LGT RAIN 58 56 93 NE10 29.70F FOG IN MA CITY SKY/WX TMP DP RH WIND PRES REMARKS Boston LGT RAIN 52 52 100 NE21G26 29.80F FOG Worcester LGT RAIN 50 48 93 NE15G24 29.77F VSB 1/2 Westfield LGT RAIN 55 55 100 N6 29.73F FOG Provincetown CLOUDY 53 51 93 E18G26 29.77F Nantucket CLOUDY 55 52 89 E16G22 29.71F $$ ANZ330-335-338-340-345-350-353-355-251800- COASTAL MARINE OBSERVATIONS STATION/POSITION TIME SKY/WX TEMP WIND PRES VSBY WAVE AIR SEA DIR/SP/G HT/PER (UTC) (F) (DEG/KT/KT) (MB) (MI) (FT/S) NY HARB ENTRANCE 1550 55 56 80/ 21/ 25 1001.9 7/ 6 20 S FIRE ISLAND 1650 54 54 80/ 19/ 23 1001.4 6/ 7 GREAT SOUTH BAY 1615 56 63 80/ 25/ 27 N/A 23 SSW MONTAUK P 1550 53 54 1004.6 6/ 6 15 E BARNEGAT LI 1630 56 N/A 6/ 7 HUDSON CANYON 1550 57 53 100/ 10/ 12 1002.3 5/ 6 KINGS POINT 1642 58 57 60/ 2/ 6 1002.5 EXECUTION ROCKS 1645 56 N/A CENTRAL LI SOUND NOT AVBL EASTERN LI SOUND NOT AVBL ROBBINS REEF 1642 58 80/ 14/ 18 1002.5 $$ >>>>>>>>>>>>>>>>>>>>>>>>>>>> KEY <<<<<<<<<<<<<<<<<<<<<<<<<<< > < > SKY/WX - Sky Condition/Present Weather < > TMP - Temperature in Fahrenheit < > DP - Dew Point in Fahrenheit < > RH - Relative Humidity in Percent < > WIND - Direction (from) and Speed in MPH < > PRES - Mean Sea Level Pressure (inches of Hg) < > WCI - Wind Chill Index < > VSB - VISIBILITY IN MILES < > HX - HEAT INDEX < > TC - TEMPERATURE IN CELSIUS < > VRB - VARIABLE WIND DIRECTION < > < >>>>>>>>>>>>>>>>>>>>>>>>>>>> KEY <<<<<<<<<<<<<<<<<<<<<<<<<<<

USA.gov is the U.S. government's official web portal to all federal, state and local government web resources and services.